{"data":{"norad_id":58803,"epoch":"2026-05-25T04:35:16.191168Z","epoch_age_seconds":58797,"freshness":"FRESH","line1":"1 58803U 24012S   26145.19115962  .00002583  00000+0  10333-3 0  9995","line2":"2 58803  43.0026  93.3940 0001565 266.6808  93.3865 15.27594741132939","mean_motion":15.27594741,"eccentricity":0.0001565,"inclination_deg":43.0026,"raan_deg":93.394,"arg_perigee_deg":266.6808,"mean_anomaly_deg":93.3865,"bstar":0.00010333,"rev_number":13293,"period_min":94.265839057376,"perigee_km":481.93118782136,"apogee_km":484.07872525375,"semimajor_km":6861.1419565376,"source":"CELESTRAK","updated_at":"2026-05-25T13:38:18.751372Z"}}